Regional Weather Roundup
Issued by NWS

Home | Current Version | Previous Version | Graphics & Text | Print | Product List | Glossary On
Versions: 1 2 3 4 5 6 7 8 9 10 11 12 13 14 15 16 17 18 19 20 21 22 23 24 25 26 27 28 29 30 31 32 33 34 35 36 37 38 39 40 41 42 43 44 45 46 47 48 49 50
000
ASUS43 KOAX 291802
RWRNE

WEATHER ROUNDUP FOR NEBRASKA
NATIONAL WEATHER SERVICE OMAHA NE
100 PM CDT SUN MAY 29 2016

NOTES: SATELLITE DATA IS BEING USED TO AUGMENT CLOUD COVER ABOVE
       12000 FEET.
       "FAIR" INDICATES FEW OR NO CLOUDS BELOW 12,000 FEET WITH NO
       SIGNIFICANT WEATHER AND/OR OBSTRUCTIONS TO VISIBILITY.

  * THESE STATIONS DO NOT REPORT WEATHER SUCH AS RAIN...SNOW OR FOG.

NEZ001>004-019>022-054>056-291900-
NEBRASKA PANHANDLE

CITY           SKY/WX    TMP DP  RH WIND       PRES   REMARKS
SCOTTSBLUFF    SUNNY     73  42  32 CALM      30.10F
6HR MIN TEMP:  45; 6HR MAX TEMP:  74;

ALLIANCE       SUNNY     72  50  45 MISG      30.09F
6HR MIN TEMP:  38; 6HR MAX TEMP:  72;

CHADRON        SUNNY     74  49  41 SW5       30.07F
6HR MIN TEMP:  37; 6HR MAX TEMP:  75;

SIDNEY         SUNNY     76  45  33 SW9       30.13F
6HR MIN TEMP:  42; 6HR MAX TEMP:  76;

$$

NEZ057>060-069>072-079>082-291900-
SOUTHWEST NEBRASKA

CITY           SKY/WX    TMP DP  RH WIND       PRES   REMARKS
NORTH PLATTE   SUNNY     77  53  43 S8        30.09F
6HR MIN TEMP:  48; 6HR MAX TEMP:  77;

IMPERIAL       SUNNY     76  55  48 S9        30.10F
6HR MIN TEMP:  50; 6HR MAX TEMP:  76;

LEXINGTON      SUNNY     76  60  56 E5        30.09F
MCCOOK         SUNNY     79  57  46 VRB5      30.08F
6HR MIN TEMP:  53; 6HR MAX TEMP:  80;

$$

NEZ005>010-023>029-035>040-094-291900-
NORTH CENTRAL NEBRASKA

CITY           SKY/WX    TMP DP  RH WIND       PRES   REMARKS
VALENTINE      SUNNY     74  51  44 SE7       30.10F
6HR MIN TEMP:  50; 6HR MAX TEMP:  74;

AINSWORTH      SUNNY     73  52  47 SW3       30.10F
BROKEN BOW     SUNNY     75  54  47 SE5       30.09F
6HR MIN TEMP:  54; 6HR MAX TEMP:  76;

ORD            SUNNY     77  52  41 VRB3      30.08F
6HR MIN TEMP:  53; 6HR MAX TEMP:  77;

$$

NEZ041-046>049-061>064-073>077-083>087-291900-
SOUTH CENTRAL NEBRASKA

CITY           SKY/WX    TMP DP  RH WIND       PRES   REMARKS
GRAND ISLAND   SUNNY     78  52  40 CALM      30.10F
6HR MIN TEMP:  57; 6HR MAX TEMP:  79;

HASTINGS       SUNNY     81  55  40 W8        30.09F
6HR MIN TEMP:  55; 6HR MAX TEMP:  81;

KEARNEY *      SUNNY     79  54  41 W8        30.10F
YORK           SUNNY     79  55  44 W6        30.10S
$$

NEZ011>018-030>034-042>045-291900-
NORTHEAST NEBRASKA

CITY           SKY/WX    TMP DP  RH WIND       PRES   REMARKS
NORFOLK        SUNNY     76  56  49 MISG      30.08F
6HR MIN TEMP:  56; 6HR MAX TEMP:  77;

ALBION         SUNNY     77  56  47 N3        30.09F
BLAIR          SUNNY     77  58  51 SW5       30.08F
FREMONT        SUNNY     77  60  55 S3        30.09F
TEKAMAH          N/A    N/A N/A N/A MISG      30.07F
$$

NEZ050>053-065>068-078-088>093-291900-
SOUTHEAST NEBRASKA

CITY           SKY/WX    TMP DP  RH WIND       PRES   REMARKS
LINCOLN        SUNNY     83  56  39 W13       30.08F
6HR MIN TEMP:  58; 6HR MAX TEMP:  83;

OMAHA EPPLEY   MOSUNNY   78  58  49 MISG      30.07F
6HR MIN TEMP:  58; 6HR MAX TEMP:  79;

FALLS CITY     SUNNY     83  63  50 W13       30.08F
6HR MIN TEMP:  61; 6HR MAX TEMP:  83;

$$

NEZ044-045-051>053-067-291900-
OMAHA AREA

CITY           SKY/WX    TMP DP  RH WIND       PRES   REMARKS
OMAHA EPPLEY   MOSUNNY   78  58  49 MISG      30.07F
6HR MIN TEMP:  58; 6HR MAX TEMP:  79;

BLAIR          SUNNY     77  58  51 SW5       30.08F
FREMONT        SUNNY     77  60  55 S3        30.09F
OFFUTT AFB     SUNNY     77  62  58 VRB3      30.07F
$$




USA.gov is the U.S. government's official web portal to all federal, state and local government web resources and services.